,,PA_Meas_PMT16A,,PR_Meas_QMR101_102,,RH_Meas_QMH101,,SR_Meas_QMS101,,TA_Meas_QMH101,,GenWind,,GenWind,
time,status,PA,status,PR,status,RH,status,SR,status,TA,status,DirAvg,status,SpdAvg,
2013-07-29, 00:00:04,VALID,919.341,VALID,0,VALID,95.0792,VALID,0,VALID,18.3784,VALID,116,VALID,0,
2013-07-29, 00:01:04,VALID,919.329,VALID,0,VALID,95.003,VALID,0,VALID,18.3589,VALID,115,VALID,0,
2013-07-29, 00:02:04,VALID,919.314,VALID,0,VALID,94.9954,VALID,0,VALID,18.3394,VALID,97,VALID,0,
2013-07-29, 00:03:04,VALID,919.277,VALID,0,VALID,94.9878,VALID,0.107441,VALID,18.2601,VALID,98,VALID,0,
2013-07-29, 00:04:04,VALID,919.301,VALID,0,VALID,95.064,VALID,0,VALID,18.2796,VALID,100,VALID,0,
2013-07-29, 00:05:04,VALID,919.277,VALID,0,VALID,95.0869,VALID,0,VALID,18.2601,VALID,126,VALID,0,
2013-07-29, 00:06:04,VALID,919.28,VALID,0,VALID,95.1555,VALID,0,VALID,18.3004,VALID,120,VALID,0,
2013-07-29, 00:07:04,VALID,919.272,VALID,0,VALID,95.2622,VALID,0,VALID,18.2601,VALID,150,VALID,0,
2013-07-29, 00:08:04,VALID,919.276,VALID,0,VALID,95.3308,VALID,0,VALID,18.299,VALID,129,VALID,0,
2013-07-29, 00:09:04,VALID,919.223,VALID,0,VALID,95.3766,VALID,0,VALID,18.2601,VALID,129,VALID,0,
2013-07-29, 00:10:04,VALID,919.228,VALID,0,VALID,95.3842,VALID,0,VALID,18.2796,VALID,146,VALID,0,
2013-07-29, 00:11:04,VALID,919.208,VALID,0,VALID,95.3689,VALID,0,VALID,18.2406,VALID,135,VALID,0,
2013-07-29, 00:12:04,VALID,919.183,VALID,0,VALID,95.3689,VALID,0,VALID,18.2615,VALID,136,VALID,0,
2013-07-29, 00:13:04,VALID,919.165,VALID,0,VALID,95.4223,VALID,0,VALID,18.2016,VALID,130,VALID,0,
2013-07-29, 00:14:04,VALID,919.148,VALID,0,VALID,95.4604,VALID,0,VALID,18.2211,VALID,133,VALID,0,
2013-07-29, 00:15:04,VALID,919.115,VALID,0,VALID,95.4985,VALID,0,VALID,18.2016,VALID,137,VALID,0,
2013-07-29, 00:16:04,VALID,919.093,VALID,0,VALID,95.5367,VALID,0.107441,VALID,18.2406,VALID,131,VALID,0,
2013-07-29, 00:17:04,VALID,919.094,VALID,0,VALID,95.5748,VALID,0.107441,VALID,18.2211,VALID,120,VALID,0,
2013-07-29, 00:18:04,VALID,919.095,VALID,0,VALID,95.6129,VALID,0.107441,VALID,18.2406,VALID,134,VALID,0,
2013-07-29, 00:19:04,VALID,919.094,VALID,0,VALID,95.6815,VALID,0.107441,VALID,18.2211,VALID,136,VALID,0,
2013-07-29, 00:20:04,VALID,919.139,VALID,0,VALID,95.7577,VALID,0.107441,VALID,18.2211,VALID,168,VALID,0,
2013-07-29, 00:21:04,VALID,919.138,VALID,0,VALID,95.834,VALID,0.107441,VALID,18.2197,VALID,123,VALID,0,
2013-07-29, 00:22:04,VALID,919.158,VALID,0,VALID,95.8568,VALID,0,VALID,18.2601,VALID,124,VALID,0,
2013-07-29, 00:23:04,VALID,919.156,VALID,0,VALID,95.8721,VALID,0.107441,VALID,18.2601,VALID,128,VALID,0,
2013-07-29, 00:24:04,VALID,919.16,VALID,0,VALID,95.895,VALID,0,VALID,18.2601,VALID,123,VALID,0,
2013-07-29, 00:25:04,VALID,919.187,VALID,0,VALID,95.8645,VALID,0,VALID,18.1821,VALID,94,VALID,0,
2013-07-29, 00:26:04,VALID,919.155,VALID,0,VALID,95.834,VALID,0,VALID,18.2016,VALID,83,VALID,0,
2013-07-29, 00:27:04,VALID,919.142,VALID,0,VALID,95.8035,VALID,0,VALID,18.2016,VALID,79,VALID,0,
2013-07-29, 00:28:04,VALID,919.125,VALID,0,VALID,95.8263,VALID,0,VALID,18.1431,VALID,79,VALID,0,
2013-07-29, 00:29:04,VALID,919.112,VALID,0,VALID,95.834,VALID,0,VALID,18.1835,VALID,79,VALID,0,
2013-07-29, 00:30:04,VALID,919.106,VALID,0,VALID,95.8263,VALID,0.107441,VALID,18.1821,VALID,79,VALID,0,
2013-07-29, 00:31:04,VALID,919.097,VALID,0,VALID,95.7958,VALID,0,VALID,18.1821,VALID,79,VALID,0,
2013-07-29, 00:32:04,VALID,919.063,VALID,0,VALID,95.7882,VALID,0,VALID,18.1236,VALID,79,VALID,0,
2013-07-29, 00:33:04,VALID,919.091,VALID,0,VALID,95.8035,VALID,0,VALID,18.1445,VALID,79,VALID,0,
2013-07-29, 00:34:04,VALID,919.082,VALID,0,VALID,95.8492,VALID,0,VALID,18.1041,VALID,79,VALID,0,
2013-07-29, 00:35:04,VALID,919.109,VALID,0,VALID,95.8721,VALID,0.107441,VALID,18.1236,VALID,79,VALID,0,
2013-07-29, 00:36:04,VALID,919.096,VALID,0,VALID,95.9559,VALID,0,VALID,18.1236,VALID,79,VALID,0,
2013-07-29, 00:37:04,VALID,919.087,VALID,0,VALID,95.9636,VALID,0,VALID,18.0846,VALID,79,VALID,0,
2013-07-29, 00:38:04,VALID,919.07,VALID,0,VALID,96.0169,VALID,0,VALID,18.1055,VALID,79,VALID,0,
2013-07-29, 00:39:04,VALID,919.09,VALID,0,VALID,96.0093,VALID,0,VALID,18.047,VALID,99,VALID,0,
2013-07-29, 00:40:04,VALID,919.066,VALID,0,VALID,96.0627,VALID,0,VALID,18.0874,VALID,107,VALID,0,
2013-07-29, 00:41:04,VALID,919.099,VALID,0,VALID,96.0703,VALID,0,VALID,18.0275,VALID,107,VALID,0,
2013-07-29, 00:42:04,VALID,919.118,VALID,0,VALID,96.1389,VALID,0,VALID,18.0874,VALID,107,VALID,0,
2013-07-29, 00:43:04,VALID,919.124,VALID,0,VALID,96.1694,VALID,0,VALID,18.1264,VALID,107,VALID,0,
2013-07-29, 00:44:04,VALID,919.131,VALID,0,VALID,96.1923,VALID,0,VALID,18.1069,VALID,107,VALID,0,
2013-07-29, 00:45:04,VALID,919.128,VALID,0,VALID,96.177,VALID,0,VALID,18.086,VALID,107,VALID,0,
2013-07-29, 00:46:04,VALID,919.118,VALID,0,VALID,96.1694,VALID,0,VALID,18.047,VALID,107,VALID,0,
2013-07-29, 00:47:04,VALID,919.14,VALID,0,VALID,96.1694,VALID,0,VALID,18.086,VALID,107,VALID,0,
2013-07-29, 00:48:04,VALID,919.148,VALID,0,VALID,96.177,VALID,0,VALID,18.0651,VALID,107,VALID,0,
2013-07-29, 00:49:04,VALID,919.135,VALID,0,VALID,96.1846,VALID,0,VALID,18.0665,VALID,107,VALID,0,
2013-07-29, 00:50:04,VALID,919.174,VALID,0,VALID,96.1694,VALID,0,VALID,18.047,VALID,107,VALID,0,
2013-07-29, 00:51:04,VALID,919.133,VALID,0,VALID,96.1846,VALID,0,VALID,18.047,VALID,107,VALID,0,
2013-07-29, 00:52:04,VALID,919.095,VALID,0,VALID,96.1618,VALID,0,VALID,18.0262,VALID,105,VALID,0,
2013-07-29, 00:53:04,VALID,919.095,VALID,0,VALID,96.1694,VALID,0,VALID,18.047,VALID,105,VALID,0,
2013-07-29, 00:54:04,VALID,919.059,VALID,0,VALID,96.1541,VALID,0,VALID,18.0067,VALID,105,VALID,0,
2013-07-29, 00:55:04,VALID,919.027,VALID,0,VALID,96.1694,VALID,0,VALID,18.0457,VALID,104,VALID,0,
2013-07-29, 00:56:04,VALID,919.003,VALID,0,VALID,96.1541,VALID,0,VALID,18.047,VALID,104,VALID,0,
2013-07-29, 00:57:04,VALID,918.986,VALID,0,VALID,96.1694,VALID,0,VALID,18.0651,VALID,103,VALID,0,
2013-07-29, 00:58:04,VALID,918.927,VALID,0,VALID,96.1541,VALID,0,VALID,18.0665,VALID,103,VALID,0,
2013-07-29, 00:59:04,VALID,918.891,VALID,0,VALID,96.1465,VALID,0,VALID,18.0846,VALID,103,VALID,0,
2013-07-29, 01:00:04,VALID,918.895,VALID,0,VALID,96.177,VALID,0,VALID,18.1041,VALID,103,VALID,0,
2013-07-29, 01:01:04,VALID,918.872,VALID,0,VALID,96.1313,VALID,0,VALID,18.1821,VALID,103,VALID,0,
2013-07-29, 01:02:04,VALID,918.886,VALID,0,VALID,96.0779,VALID,0,VALID,18.299,VALID,114,VALID,0,
2013-07-29, 01:03:04,VALID,918.842,VALID,0,VALID,95.9483,VALID,0,VALID,18.3199,VALID,114,VALID,0,
2013-07-29, 01:04:04,VALID,918.866,VALID,0,VALID,95.8187,VALID,0,VALID,18.338,VALID,121,VALID,0,
2013-07-29, 01:05:04,VALID,918.902,VALID,0,VALID,95.6967,VALID,0,VALID,18.377,VALID,122,VALID,0,
2013-07-29, 01:06:04,VALID,918.868,VALID,0,VALID,95.59,VALID,0.107441,VALID,18.338,VALID,122,VALID,0,
2013-07-29, 01:07:04,VALID,918.886,VALID,0,VALID,95.4909,VALID,0,VALID,18.338,VALID,122,VALID,0,
2013-07-29, 01:08:04,VALID,918.875,VALID,0,VALID,95.4299,VALID,0,VALID,18.3575,VALID,122,VALID,0,
2013-07-29, 01:09:04,VALID,918.871,VALID,0,VALID,95.3994,VALID,0,VALID,18.3408,VALID,122,VALID,0,
2013-07-29, 01:10:04,VALID,918.837,VALID,0,VALID,95.3308,VALID,0,VALID,18.3394,VALID,122,VALID,0,
2013-07-29, 01:11:04,VALID,918.796,VALID,0,VALID,95.3079,VALID,0,VALID,18.2809,VALID,122,VALID,0,
2013-07-29, 01:12:04,VALID,918.762,VALID,0,VALID,95.2546,VALID,0,VALID,18.3004,VALID,124,VALID,0,
2013-07-29, 01:13:04,VALID,918.757,VALID,0,VALID,95.2622,VALID,0,VALID,18.3018,VALID,136,VALID,0,
2013-07-29, 01:14:04,VALID,918.754,VALID,0,VALID,95.2317,VALID,0,VALID,18.3018,VALID,125,VALID,0,
2013-07-29, 01:15:04,VALID,918.746,VALID,0,VALID,95.2241,VALID,0,VALID,18.2823,VALID,134,VALID,0,
2013-07-29, 01:16:04,VALID,918.727,VALID,0,VALID,95.2241,VALID,0,VALID,18.2238,VALID,124,VALID,0,
2013-07-29, 01:17:04,VALID,918.725,VALID,0,VALID,95.2698,VALID,0,VALID,18.2238,VALID,133,VALID,0,
2013-07-29, 01:18:04,VALID,918.692,VALID,0,VALID,95.3232,VALID,0,VALID,18.2225,VALID,129,VALID,0,
2013-07-29, 01:19:04,VALID,918.664,VALID,0,VALID,95.3613,VALID,0,VALID,18.203,VALID,135,VALID,0,
2013-07-29, 01:20:04,VALID,918.634,VALID,0,VALID,95.3994,VALID,0,VALID,18.2044,VALID,117,VALID,0,
2013-07-29, 01:21:04,VALID,918.615,VALID,0,VALID,95.4147,VALID,0,VALID,18.1654,VALID,130,VALID,0,
2013-07-29, 01:22:04,VALID,918.595,VALID,0,VALID,95.4604,VALID,0,VALID,18.2238,VALID,129,VALID,0,
2013-07-29, 01:23:04,VALID,918.556,VALID,0,VALID,95.468,VALID,0,VALID,18.1445,VALID,131,VALID,0,
2013-07-29, 01:24:04,VALID,918.536,VALID,0,VALID,95.5214,VALID,0,VALID,18.1835,VALID,124,VALID,0,
2013-07-29, 01:25:04,VALID,918.493,VALID,0,VALID,95.529,VALID,0,VALID,18.1821,VALID,128,VALID,0,
2013-07-29, 01:26:04,VALID,918.528,VALID,0,VALID,95.5595,VALID,0,VALID,18.125,VALID,139,VALID,0,
2013-07-29, 01:27:04,VALID,918.524,VALID,0,VALID,95.5748,VALID,0.107441,VALID,18.1431,VALID,134,VALID,0,
2013-07-29, 01:28:04,VALID,918.518,VALID,0,VALID,95.6205,VALID,0.107441,VALID,18.1236,VALID,135,VALID,0,
2013-07-29, 01:29:04,VALID,918.515,VALID,0,VALID,95.651,VALID,0,VALID,18.1431,VALID,128,VALID,0,
2013-07-29, 01:30:04,VALID,918.499,VALID,0,VALID,95.6662,VALID,0,VALID,18.1236,VALID,134,VALID,0,
2013-07-29, 01:31:04,VALID,918.495,VALID,0,VALID,95.712,VALID,0,VALID,18.1445,VALID,134,VALID,0,
2013-07-29, 01:32:04,VALID,918.528,VALID,0,VALID,95.7425,VALID,0,VALID,18.164,VALID,127,VALID,0,
2013-07-29, 01:33:04,VALID,918.493,VALID,0,VALID,95.7349,VALID,0,VALID,18.1445,VALID,139,VALID,0,
2013-07-29, 01:34:04,VALID,918.517,VALID,0,VALID,95.7501,VALID,0,VALID,18.1055,VALID,126,VALID,0,
2013-07-29, 01:35:04,VALID,918.531,VALID,0,VALID,95.7806,VALID,0,VALID,18.164,VALID,121,VALID,0,
2013-07-29, 01:36:04,VALID,918.514,VALID,0,VALID,95.773,VALID,0.107441,VALID,18.1041,VALID,117,VALID,0,
2013-07-29, 01:37:04,VALID,918.541,VALID,0,VALID,95.7958,VALID,0,VALID,18.1055,VALID,110,VALID,0,
2013-07-29, 01:38:04,VALID,918.565,VALID,0,VALID,95.8416,VALID,0,VALID,18.1055,VALID,112,VALID,0,
2013-07-29, 01:39:04,VALID,918.556,VALID,0,VALID,95.8416,VALID,0,VALID,18.0665,VALID,130,VALID,0,
2013-07-29, 01:40:04,VALID,918.564,VALID,0,VALID,95.8721,VALID,0,VALID,18.0665,VALID,132,VALID,0,
2013-07-29, 01:41:04,VALID,918.53,VALID,0,VALID,95.895,VALID,0,VALID,18.0665,VALID,126,VALID,0,
2013-07-29, 01:42:04,VALID,918.53,VALID,0,VALID,95.895,VALID,0.107441,VALID,18.0457,VALID,128,VALID,0,
2013-07-29, 01:43:04,VALID,918.532,VALID,0,VALID,95.9331,VALID,0.107441,VALID,18.125,VALID,141,VALID,0,
2013-07-29, 01:44:04,VALID,918.529,VALID,0,VALID,95.9331,VALID,0,VALID,18.1041,VALID,132,VALID,0,
2013-07-29, 01:45:04,VALID,918.497,VALID,0,VALID,95.9407,VALID,0,VALID,18.1055,VALID,118,VALID,0,
2013-07-29, 01:46:04,VALID,918.463,VALID,0,VALID,95.9407,VALID,0,VALID,18.125,VALID,131,VALID,0,
2013-07-29, 01:47:04,VALID,918.47,VALID,0,VALID,95.9102,VALID,0,VALID,18.1055,VALID,126,VALID,0,
2013-07-29, 01:48:04,VALID,918.449,VALID,0,VALID,95.8797,VALID,0,VALID,18.1431,VALID,135,VALID,0,
2013-07-29, 01:49:04,VALID,918.417,VALID,0,VALID,95.834,VALID,0,VALID,18.164,VALID,135,VALID,0,
2013-07-29, 01:50:04,VALID,918.438,VALID,0,VALID,95.7806,VALID,0,VALID,18.2225,VALID,148,VALID,0,
2013-07-29, 01:51:04,VALID,918.413,VALID,0,VALID,95.6967,VALID,0,VALID,18.1835,VALID,124,VALID,0,
2013-07-29, 01:52:04,VALID,918.43,VALID,0,VALID,95.6586,VALID,0,VALID,18.203,VALID,155,VALID,0,
2013-07-29, 01:53:04,VALID,918.427,VALID,0,VALID,95.6281,VALID,0,VALID,18.242,VALID,150,VALID,0,
2013-07-29, 01:54:04,VALID,918.417,VALID,0,VALID,95.59,VALID,0,VALID,18.2615,VALID,153,VALID,0,
2013-07-29, 01:55:04,VALID,918.404,VALID,0,VALID,95.5748,VALID,0,VALID,18.2615,VALID,164,VALID,0,
2013-07-29, 01:56:04,VALID,918.406,VALID,0,VALID,95.5824,VALID,0,VALID,18.242,VALID,159,VALID,0,
2013-07-29, 01:57:04,VALID,918.387,VALID,0,VALID,95.59,VALID,0,VALID,18.203,VALID,147,VALID,0,
2013-07-29, 01:58:04,VALID,918.366,VALID,0.2,VALID,95.6281,VALID,0,VALID,18.203,VALID,154,VALID,0,
2013-07-29, 01:59:04,VALID,918.33,VALID,0,VALID,95.6129,VALID,0,VALID,18.2615,VALID,157,VALID,0,
2013-07-29, 02:00:04,VALID,918.306,VALID,0,VALID,95.6053,VALID,0.107441,VALID,18.2809,VALID,141,VALID,0,
2013-07-29, 02:01:04,VALID,918.28,VALID,0,VALID,95.5367,VALID,0,VALID,18.3004,VALID,116,VALID,0,
2013-07-29, 02:02:04,VALID,918.246,VALID,0,VALID,95.4299,VALID,0.107441,VALID,18.2615,VALID,120,VALID,0,
2013-07-29, 02:03:04,VALID,918.214,VALID,0,VALID,95.247,VALID,0.107441,VALID,18.2809,VALID,131,VALID,0,
2013-07-29, 02:04:04,VALID,918.223,VALID,0,VALID,95.0792,VALID,0,VALID,18.2601,VALID,147,VALID,0,
2013-07-29, 02:05:04,VALID,918.22,VALID,0,VALID,95.0564,VALID,0.107441,VALID,18.3589,VALID,161,VALID,0,
2013-07-29, 02:06:04,VALID,918.199,VALID,0,VALID,95.0564,VALID,0,VALID,18.3199,VALID,171,VALID,0,
2013-07-29, 02:07:04,VALID,918.214,VALID,0,VALID,94.9573,VALID,0,VALID,18.3004,VALID,171,VALID,0,
2013-07-29, 02:08:04,VALID,918.187,VALID,0,VALID,94.9268,VALID,0,VALID,18.2601,VALID,165,VALID,0,
2013-07-29, 02:09:04,VALID,918.198,VALID,0.2,VALID,94.9573,VALID,0,VALID,18.3575,VALID,144,VALID,0,
2013-07-29, 02:10:04,VALID,918.162,VALID,0,VALID,94.9039,VALID,0,VALID,18.338,VALID,148,VALID,0,
2013-07-29, 02:11:04,VALID,918.192,VALID,0,VALID,94.9192,VALID,0,VALID,18.2782,VALID,126,VALID,0,
2013-07-29, 02:12:04,VALID,918.147,VALID,0,VALID,94.9725,VALID,0,VALID,18.3004,VALID,143,VALID,0,
2013-07-29, 02:13:04,VALID,918.105,VALID,0,VALID,95.0716,VALID,0.107441,VALID,18.2796,VALID,143,VALID,0,
2013-07-29, 02:14:04,VALID,918.09,VALID,0,VALID,95.1479,VALID,0,VALID,18.2601,VALID,167,VALID,0,
2013-07-29, 02:15:04,VALID,918.079,VALID,0,VALID,95.1936,VALID,0,VALID,18.2615,VALID,150,VALID,0,
2013-07-29, 02:16:04,VALID,918.027,VALID,0,VALID,95.2698,VALID,0,VALID,18.2211,VALID,164,VALID,0,
2013-07-29, 02:17:04,VALID,918.076,VALID,0,VALID,95.3537,VALID,0,VALID,18.2211,VALID,156,VALID,0,
2013-07-29, 02:18:05,VALID,918.031,VALID,0,VALID,95.3918,VALID,0,VALID,18.2211,VALID,157,VALID,0,
2013-07-29, 02:19:05,VALID,918.073,VALID,0,VALID,95.4528,VALID,0.107441,VALID,18.242,VALID,140,VALID,0,
2013-07-29, 02:20:05,VALID,918.031,VALID,0.2,VALID,95.5138,VALID,0,VALID,18.2016,VALID,157,VALID,0,
2013-07-29, 02:21:05,VALID,918.032,VALID,0,VALID,95.5595,VALID,0,VALID,18.1821,VALID,174,VALID,0,
2013-07-29, 02:22:05,VALID,918.018,VALID,0,VALID,95.5976,VALID,0.107441,VALID,18.1821,VALID,151,VALID,0,
2013-07-29, 02:23:05,VALID,918.027,VALID,0,VALID,95.651,VALID,0,VALID,18.1626,VALID,147,VALID,0,
2013-07-29, 02:24:05,VALID,918.035,VALID,0,VALID,95.6739,VALID,0,VALID,18.1835,VALID,160,VALID,0,
2013-07-29, 02:25:05,VALID,918.009,VALID,0,VALID,95.7272,VALID,0,VALID,18.2238,VALID,176,VALID,0,
2013-07-29, 02:26:05,VALID,917.999,VALID,0,VALID,95.7577,VALID,0,VALID,18.164,VALID,160,VALID,0,
2013-07-29, 02:27:05,VALID,917.963,VALID,0,VALID,95.7577,VALID,0,VALID,18.1835,VALID,162,VALID,0,
2013-07-29, 02:28:05,VALID,917.938,VALID,0,VALID,95.773,VALID,0,VALID,18.164,VALID,174,VALID,0,
2013-07-29, 02:29:05,VALID,917.929,VALID,0,VALID,95.7806,VALID,0,VALID,18.1445,VALID,167,VALID,0,
2013-07-29, 02:30:05,VALID,917.899,VALID,0,VALID,95.8263,VALID,0,VALID,18.1835,VALID,165,VALID,0,
2013-07-29, 02:31:05,VALID,917.932,VALID,0,VALID,95.8568,VALID,0,VALID,18.1835,VALID,138,VALID,0,
2013-07-29, 02:32:05,VALID,917.903,VALID,0,VALID,95.8797,VALID,0,VALID,18.164,VALID,144,VALID,0,
2013-07-29, 02:33:05,VALID,917.911,VALID,0,VALID,95.895,VALID,0,VALID,18.2044,VALID,168,VALID,0,
2013-07-29, 02:34:05,VALID,917.885,VALID,0,VALID,95.9254,VALID,0,VALID,18.1835,VALID,170,VALID,0,
2013-07-29, 02:35:05,VALID,917.87,VALID,0,VALID,95.9102,VALID,0,VALID,18.1835,VALID,165,VALID,0,
2013-07-29, 02:36:05,VALID,917.874,VALID,0,VALID,95.9559,VALID,0,VALID,18.2225,VALID,144,VALID,0,
2013-07-29, 02:37:05,VALID,917.854,VALID,0,VALID,95.9636,VALID,0,VALID,18.2225,VALID,146,VALID,0,
2013-07-29, 02:38:05,VALID,917.883,VALID,0,VALID,95.9712,VALID,0,VALID,18.2628,VALID,141,VALID,0,
2013-07-29, 02:39:05,VALID,917.832,VALID,0,VALID,95.9407,VALID,0,VALID,18.242,VALID,145,VALID,0,
2013-07-29, 02:40:05,VALID,917.803,VALID,0,VALID,95.9331,VALID,0,VALID,18.2796,VALID,148,VALID,0,
2013-07-29, 02:41:05,VALID,917.802,VALID,0,VALID,95.9178,VALID,0.107441,VALID,18.3199,VALID,146,VALID,0,
2013-07-29, 02:42:05,VALID,917.771,VALID,0,VALID,95.895,VALID,0.107441,VALID,18.2796,VALID,196,VALID,0,
2013-07-29, 02:43:05,VALID,917.756,VALID,0,VALID,95.8645,VALID,0,VALID,18.2796,VALID,145,VALID,0,
2013-07-29, 02:44:05,VALID,917.752,VALID,0,VALID,95.8111,VALID,0,VALID,18.299,VALID,153,VALID,0,
2013-07-29, 02:45:05,VALID,917.758,VALID,0,VALID,95.773,VALID,0,VALID,18.3185,VALID,165,VALID,0,
2013-07-29, 02:46:05,VALID,917.723,VALID,0,VALID,95.712,VALID,0,VALID,18.3199,VALID,148,VALID,0,
2013-07-29, 02:47:05,VALID,917.729,VALID,0,VALID,95.6281,VALID,0,VALID,18.3185,VALID,150,VALID,0,
2013-07-29, 02:48:05,VALID,917.705,VALID,0,VALID,95.5748,VALID,0,VALID,18.338,VALID,141,VALID,0,
2013-07-29, 02:49:05,VALID,917.691,VALID,0,VALID,95.5367,VALID,0,VALID,18.3185,VALID,139,VALID,0,
2013-07-29, 02:50:05,VALID,917.68,VALID,0,VALID,95.4985,VALID,0,VALID,18.3575,VALID,151,VALID,0,
2013-07-29, 02:51:05,VALID,917.669,VALID,0,VALID,95.4299,VALID,0,VALID,18.338,VALID,149,VALID,0,
2013-07-29, 02:52:05,VALID,917.669,VALID,0,VALID,95.3766,VALID,0,VALID,18.3575,VALID,163,VALID,0,
2013-07-29, 02:53:05,VALID,917.675,VALID,0,VALID,95.2698,VALID,0.107441,VALID,18.377,VALID,136,VALID,0,
2013-07-29, 02:54:05,VALID,917.638,VALID,0,VALID,95.2622,VALID,0,VALID,18.416,VALID,142,VALID,0,
2013-07-29, 02:55:05,VALID,917.635,VALID,0,VALID,95.1707,VALID,0.107441,VALID,18.3575,VALID,137,VALID,0,
2013-07-29, 02:56:05,VALID,917.611,VALID,0,VALID,95.0564,VALID,0,VALID,18.3965,VALID,161,VALID,0,
2013-07-29, 02:57:05,VALID,917.624,VALID,0,VALID,95.0488,VALID,0,VALID,18.377,VALID,176,VALID,0,
2013-07-29, 02:58:05,VALID,917.606,VALID,0,VALID,94.9268,VALID,0.107441,VALID,18.377,VALID,153,VALID,0,
2013-07-29, 02:59:05,VALID,917.577,VALID,0,VALID,94.881,VALID,0.107441,VALID,18.377,VALID,157,VALID,0,
2013-07-29, 03:00:05,VALID,917.565,VALID,0,VALID,94.7133,VALID,0,VALID,18.3965,VALID,144,VALID,0,
2013-07-29, 03:01:05,VALID,917.572,VALID,0,VALID,94.599,VALID,0,VALID,18.3965,VALID,135,VALID,0,
2013-07-29, 03:02:05,VALID,917.556,VALID,0,VALID,94.4008,VALID,0.107441,VALID,18.416,VALID,127,VALID,0,
2013-07-29, 03:03:05,VALID,917.534,VALID,0,VALID,94.2864,VALID,0,VALID,18.4174,VALID,129,VALID,0,
2013-07-29, 03:04:05,VALID,917.534,VALID,0,VALID,94.1873,VALID,0,VALID,18.3965,VALID,136,VALID,0,
2013-07-29, 03:05:05,VALID,917.533,VALID,0,VALID,94.1721,VALID,0,VALID,18.377,VALID,135,VALID,0,
2013-07-29, 03:06:05,VALID,917.517,VALID,0,VALID,94.1721,VALID,0,VALID,18.3784,VALID,126,VALID,0,
2013-07-29, 03:07:05,VALID,917.494,VALID,0,VALID,94.1797,VALID,0,VALID,18.377,VALID,140,VALID,0,
2013-07-29, 03:08:05,VALID,917.502,VALID,0,VALID,94.2178,VALID,0,VALID,18.377,VALID,141,VALID,0,
2013-07-29, 03:09:05,VALID,917.485,VALID,0,VALID,94.2178,VALID,0,VALID,18.338,VALID,118,VALID,0,
2013-07-29, 03:10:05,VALID,917.436,VALID,0,VALID,94.2864,VALID,0,VALID,18.3394,VALID,98,VALID,0,
2013-07-29, 03:11:05,VALID,917.432,VALID,0,VALID,94.3626,VALID,0.107441,VALID,18.2796,VALID,126,VALID,0,
2013-07-29, 03:12:05,VALID,917.416,VALID,0,VALID,94.4389,VALID,0.107441,VALID,18.338,VALID,126,VALID,0,
2013-07-29, 03:13:05,VALID,917.387,VALID,0,VALID,94.4922,VALID,0,VALID,18.299,VALID,103,VALID,0,
2013-07-29, 03:14:05,VALID,917.398,VALID,0,VALID,94.5609,VALID,0,VALID,18.299,VALID,129,VALID,0,
2013-07-29, 03:15:05,VALID,917.428,VALID,0,VALID,94.6142,VALID,0,VALID,18.3185,VALID,124,VALID,0,
2013-07-29, 03:16:05,VALID,917.413,VALID,0,VALID,94.66,VALID,0,VALID,18.3004,VALID,120,VALID,0,
2013-07-29, 03:17:05,VALID,917.4,VALID,0,VALID,94.6905,VALID,0,VALID,18.2809,VALID,127,VALID,0,
2013-07-29, 03:18:05,VALID,917.43,VALID,0,VALID,94.7972,VALID,0.107441,VALID,18.299,VALID,112,VALID,0,
2013-07-29, 03:19:05,VALID,917.408,VALID,0,VALID,94.8048,VALID,0,VALID,18.299,VALID,126,VALID,0,
2013-07-29, 03:20:05,VALID,917.389,VALID,0,VALID,94.8429,VALID,0,VALID,18.2796,VALID,126,VALID,0,
2013-07-29, 03:21:05,VALID,917.434,VALID,0,VALID,94.881,VALID,0,VALID,18.299,VALID,143,VALID,0,
2013-07-29, 03:22:05,VALID,917.426,VALID,0,VALID,94.8887,VALID,0,VALID,18.2796,VALID,124,VALID,0,
2013-07-29, 03:23:05,VALID,917.434,VALID,0,VALID,94.9268,VALID,0,VALID,18.2211,VALID,136,VALID,0,
2013-07-29, 03:24:05,VALID,917.428,VALID,0,VALID,94.9115,VALID,0,VALID,18.2406,VALID,127,VALID,0,
2013-07-29, 03:25:05,VALID,917.427,VALID,0,VALID,94.942,VALID,0,VALID,18.2601,VALID,138,VALID,0,
2013-07-29, 03:26:05,VALID,917.394,VALID,0,VALID,94.9573,VALID,0,VALID,18.2796,VALID,125,VALID,0,
2013-07-29, 03:27:05,VALID,917.397,VALID,0,VALID,94.9954,VALID,0,VALID,18.2796,VALID,135,VALID,0,
2013-07-29, 03:28:05,VALID,917.375,VALID,0,VALID,95.003,VALID,0,VALID,18.242,VALID,133,VALID,0,
2013-07-29, 03:29:05,VALID,917.388,VALID,0,VALID,94.9725,VALID,0,VALID,18.2796,VALID,129,VALID,0,
2013-07-29, 03:30:05,VALID,917.372,VALID,0,VALID,94.9573,VALID,0,VALID,18.2406,VALID,127,VALID,0,
2013-07-29, 03:31:05,VALID,917.383,VALID,0,VALID,94.9573,VALID,0,VALID,18.242,VALID,118,VALID,0,
2013-07-29, 03:32:05,VALID,917.373,VALID,0,VALID,94.9725,VALID,0,VALID,18.2796,VALID,133,VALID,0,
2013-07-29, 03:33:05,VALID,917.364,VALID,0,VALID,94.9496,VALID,0,VALID,18.2211,VALID,140,VALID,0,
2013-07-29, 03:34:05,VALID,917.372,VALID,0,VALID,94.9573,VALID,0,VALID,18.242,VALID,131,VALID,0,
2013-07-29, 03:35:05,VALID,917.351,VALID,0,VALID,94.9878,VALID,0,VALID,18.242,VALID,144,VALID,0,
2013-07-29, 03:36:05,VALID,917.355,VALID,0,VALID,94.942,VALID,0,VALID,18.2406,VALID,124,VALID,0,
2013-07-29, 03:37:05,VALID,917.322,VALID,0,VALID,94.9496,VALID,0,VALID,18.2615,VALID,135,VALID,0,
2013-07-29, 03:38:05,VALID,917.319,VALID,0,VALID,94.9649,VALID,0,VALID,18.2016,VALID,146,VALID,0,
2013-07-29, 03:39:05,VALID,917.338,VALID,0,VALID,94.9725,VALID,0.107441,VALID,18.2809,VALID,138,VALID,0,
2013-07-29, 03:40:05,VALID,917.337,VALID,0,VALID,94.9954,VALID,0,VALID,18.2615,VALID,165,VALID,0,
2013-07-29, 03:41:05,VALID,917.348,VALID,0,VALID,94.9878,VALID,0,VALID,18.3004,VALID,133,VALID,0,
2013-07-29, 03:42:05,VALID,917.372,VALID,0,VALID,94.9878,VALID,0,VALID,18.2601,VALID,176,VALID,0,
2013-07-29, 03:43:05,VALID,917.344,VALID,0,VALID,95.0106,VALID,0,VALID,18.2406,VALID,160,VALID,0,
2013-07-29, 03:44:05,VALID,917.328,VALID,0,VALID,94.9649,VALID,0,VALID,18.2615,VALID,108,VALID,0,
2013-07-29, 03:45:05,VALID,917.355,VALID,0,VALID,95.0411,VALID,0,VALID,18.2211,VALID,138,VALID,0,
2013-07-29, 03:46:05,VALID,917.338,VALID,0,VALID,95.0183,VALID,0,VALID,18.242,VALID,141,VALID,0,
2013-07-29, 03:47:05,VALID,917.36,VALID,0,VALID,95.0106,VALID,0,VALID,18.2601,VALID,153,VALID,0,
2013-07-29, 03:48:05,VALID,917.355,VALID,0,VALID,95.0564,VALID,0,VALID,18.2406,VALID,145,VALID,0,
2013-07-29, 03:49:05,VALID,917.384,VALID,0,VALID,95.0183,VALID,0,VALID,18.2615,VALID,178,VALID,0,
2013-07-29, 03:50:05,VALID,917.372,VALID,0,VALID,95.0106,VALID,0,VALID,18.2809,VALID,177,VALID,0,
2013-07-29, 03:51:05,VALID,917.406,VALID,0,VALID,94.9649,VALID,0,VALID,18.2406,VALID,159,VALID,0,
2013-07-29, 03:52:05,VALID,917.423,VALID,0,VALID,94.9344,VALID,0,VALID,18.2615,VALID,160,VALID,0,
2013-07-29, 03:53:05,VALID,917.414,VALID,0,VALID,94.9573,VALID,0,VALID,18.3004,VALID,139,VALID,0,
2013-07-29, 03:54:05,VALID,917.383,VALID,0,VALID,94.8963,VALID,0,VALID,18.2406,VALID,113,VALID,0,
2013-07-29, 03:55:05,VALID,917.4,VALID,0,VALID,94.881,VALID,0,VALID,18.2601,VALID,184,VALID,0,
2013-07-29, 03:56:05,VALID,917.419,VALID,0,VALID,94.8658,VALID,0,VALID,18.2601,VALID,139,VALID,0,
2013-07-29, 03:57:05,VALID,917.457,VALID,0,VALID,94.8505,VALID,0,VALID,18.3199,VALID,134,VALID,0,
2013-07-29, 03:58:05,VALID,917.427,VALID,0,VALID,94.7743,VALID,0,VALID,18.2615,VALID,142,VALID,0,